Location: Newark
(48.1500°N, 2.9667°W)
Time: 18:03:59
(UTC+00:00)

Altair - Pass Details

Date: 01 February 2020
Orbit: 1502 x 1682 km, 47.2° (Epoch: 25 February)

Event Time Altitude Azimuth Distance (km) Brightness Sun altitude
Rises 11:01:19 0° 280° (W) 4,913 9.9 22.0°
Reaches altitude 10° 11:04:28 10° 279° (W) 3,936 9.4 22.2°
Maximum altitude 11:14:37 78° 196° (SSW) 1,716 8.4 22.8°
Drops below altitude 10° 11:24:42 10° 112° (ESE) 3,914 10.3 23.3°
Sets 11:27:49 0° 111° (ESE) 4,885 10.6 23.4°
